Location: Banios
(43.0451°N, 0.2335°E)
Time: 04:54:13
(UTC+00:00)

N. Korean satellite - Pass Details

Date: 02 December 2021
Orbit: 447 x 491 km, 97.3° (Epoch: 25 January)

Event Time Altitude Azimuth Distance (km) Brightness Sun altitude
Rises 04:14:03 0° 33° (NNE) 2,465 10.5 -31.8°
Reaches altitude 10° 04:17:02 10° 63° (ENE) 1,581 9.8 -31.2°
Maximum altitude 04:18:40 13° 92° (E) 1,404 9.7 -30.9°
Drops below altitude 10° 04:20:18 10° 121° (ESE) 1,571 9.8 -30.6°
Sets 04:23:14 0° 150° (SSE) 2,436 10.5 -30.1°
